Regional Weather Roundup
Issued by NWS Kansas City/Pleasant Hill, MO

Home | Current Version | Previous Version | Text Only | Print | Product List | Glossary On
Versions: 1 2 3 4 5 6 7 8 9 10 11 12 13 14 15 16 17 18 19 20 21 22 23 24 25 26 27 28
000
ASUS43 KEAX 280810
RWREAX

WEATHER ROUNDUP FOR EASTERN KANSAS AND NORTHWEST MISSOURI
NATIONAL WEATHER SERVICE KANSAS CITY/PLEASANT HILL MO
300 AM CDT THU APR 28 2016

KSZ040-057-103>105-MOZ028-029-037-043-280900-
...KANSAS CITY METROPOLITAN AREA...

CITY           SKY/WX    TMP DP  RH WIND       PRES   REMARKS
K.C. INTL      CLOUDY    47  39  74 W10       29.72S
K.C. DOWNTOWN  CLOUDY    50  39  66 W9G18     29.73S
LEES SUMMIT    PTCLDY    50  38  63 W16G23    29.74S
OLATHE - IXD   CLEAR     47  38  71 W13       29.76R
OLATHE - OJC   PTCLDY    47  38  71 W13G22    29.75R
LAWRENCE       MOCLDY    47  39  74 W12       29.74F

$$

MOZ001>008-011>017-020>025-030>033-038>040-044>046-053-054-280900-
...NORTHERN AND CENTRAL MISSOURI...

CITY           SKY/WX    TMP DP  RH WIND       PRES   REMARKS
ST. JOSEPH     CLOUDY    48  41  76 W12       29.70S
MOSBY          CLOUDY    50  39  66 SW12G18   29.73R
WARRENSBURG    CLEAR     50  45  81 SW7       29.75S
WHITEMAN AFB   CLEAR     51  50  97 W7        29.74R
CLINTON        CLEAR     52  46  82 W7        29.77R
SEDALIA        CLEAR     55  48  77 W10       29.75R
WARSAW         NOT AVBL
CHILLICOTHE      N/A     50  32  50 S6        29.71S
KIRKSVILLE     CLOUDY    50  48  93 SE3       29.70S

$$

MOZ041-047>049-056>058-063>065-088>090-097-280900-
...EASTERN AND SOUTHERN MISSOURI...

CITY           SKY/WX    TMP DP  RH WIND       PRES   REMARKS
ST. LOUIS INTL CLEAR     59  51  75 W6        29.74S
SPIRIT OF STL  CLEAR     55  54  96 SW3       29.74R
COLUMBIA       PTCLDY    52  50  93 S5        29.74R
JEFFERSON CITY CLEAR     53  52  96 CALM      29.74S
ROLLA          PTCLDY    49  46  90 SW6       29.74S
OSAGE BEACH    CLEAR     55  43  62 SW6       29.76S
SPRINGFIELD    CLEAR     54  46  74 W7        29.80R
JOPLIN         CLEAR     51  46  83 W7        29.81S
WEST PLAINS    CLEAR     52  48  86 MISG      29.80R

$$

IAZ060-094-KSZ022-034>040-054-083-096-NEZ052-066-093-280900-
...KANSAS...SOUTHEAST NEBRASKA AND IOWA...

CITY           SKY/WX    TMP DP  RH WIND       PRES   REMARKS
TOPEKA         MOCLDY    47  37  68 W10G18    29.75S
MANHATTAN      MOCLDY    46  35  65 W14G23    29.78R
EMPORIA        CLEAR     46  38  73 W12       29.79S
CHANUTE        CLEAR     50  41  71 W8        29.80S
WICHITA        PTCLDY    47  39  74 NW6       29.84R
OMAHA          DRIZZLE   46  44  93 SW5       29.66R
LINCOLN        CLOUDY    50  45  83 NW13      29.69R
FALLS CITY     CLOUDY    48  43  82 W21       29.67S
LAMONI         CLOUDY    47  41  80 SW10      29.66S
DES MOINES     MOCLDY    47  40  76 S6        29.66R

$$





USA.gov is the U.S. government's official web portal to all federal, state and local government web resources and services.